Hourly Data Report for October 03, 2017

All times are specified in Local Standard Time (LST). Add 1 hour to adjust for Daylight Saving Time where and when it is observed.

GILLAM A
MANITOBA

56°21'28.000" N
94°42'39.000" W
145.10 m
5061022
71912
YGX

Download Data

Hourly Data (October 2017)
Hourly Data Report for October 3, 2017
Temp Definition
°C
Dew Point Temp Definition
°C
Rel Hum Definition
%
Wind Dir Definition
10's deg

Wind Spd Definition
km/h
Visibility Definition
km
Stn Press Definition
kPa
Hmdx Definition


Wind Chill Definition


Weather Definition


TIME
00:00 Legend Double Dagger 2.6 1.5 92 2 34 4.8 99.64     Rain,Fog
01:00 Legend Double Dagger 2.6 1.8 95 1 32 4.8 99.66     Rain,Fog
02:00 Legend Double Dagger 2.1 1.3 95 36 31 4.8 99.74     Rain,Fog
03:00 Legend Double Dagger 1.9 0.7 92 36 23 4.8 99.85     Rain,Fog
04:00 Legend Double Dagger 2.0 0.5 90 36 22 24.1 99.95     LegendNANA
05:00 Legend Double Dagger 1.4 -0.2 89 1 21 24.1 100.08     LegendNANA
06:00 Legend Double Dagger 1.2 -0.4 89 36 21 24.1 100.15     Mainly Clear
07:00 Legend Double Dagger 0.8 -0.6 90 34 17 24.1 100.23     LegendNANA
08:00 Legend Double Dagger 1.7 -0.6 85 35 20 24.1 100.33     LegendNANA
09:00 Legend Double Dagger 2.6 -0.1 82 35 15 24.1 100.39     Clear
10:00 Legend Double Dagger 4.1 0.2 76 35 11 24.1 100.36     LegendNANA
11:00 Legend Double Dagger 5.2 -0.4 67 35 13 24.1 100.36     LegendNANA
12:00 Legend Double Dagger 6.4 -0.8 60 35 11 24.1 100.33     Clear
13:00 Legend Double Dagger 7.3 -0.2 59 30 12 24.1 100.31     LegendNANA
14:00 Legend Double Dagger 7.5 -0.7 56 29 13 24.1 100.31     LegendNANA
15:00 Legend Double Dagger 7.7 -0.3 57 26 13 24.1 100.27     Mainly Clear
16:00 Legend Double Dagger 7.2 0.0 60 24 10 24.1 100.26     LegendNANA
17:00 Legend Double Dagger 6.9 0.8 65 24 9 24.1 100.26     LegendNANA
18:00 Legend Double Dagger 5.6 0.4 69 19 7 24.1 100.25     Mostly Cloudy
19:00 Legend Double Dagger 4.2 0.0 74 19 7 24.1 100.19     LegendNANA
20:00 Legend Double Dagger 3.2 -0.3 77 21 9 24.1 100.10     LegendNANA
21:00 Legend Double Dagger 3.0 0.0 80 20 11 24.1 99.99     Mostly Cloudy
22:00 Legend Double Dagger 3.7 0.5 79 21 14 24.1 99.87     LegendNANA
23:00 Legend Double Dagger 3.5 0.4 80 21 12 24.1 99.79     LegendNANA

Notes on Data Quality.

Legend

  • E = Estimated
  • M = Missing
  • NA = Not Available
  • ‡ = Partner data that is not subject to review by the National Climate Archives
Date modified: